Flag for U.S.A. Weather past 2 weeks in Post Falls, Idaho, U.S.A.

Now
91 °F

Sunny.


Feels Like: 88 °F
Forecast: 64 / 97 °F
Wind: 7 mph from Northwest

Location: Coeur d'Alene Weather Reporting System

Current Time: Jul 1, 2015 at 6:53:56 PM

Latest Report: Jul 1, 2015 at 6:35 PM


Visibility: 10 mi

Pressure: 29.93 "Hg

Humidity: 21%

Dew point: 46 °F

Location of Post FallsLocation

Historic Weather in Post Falls — Graph

°F

Post Falls temperature yesterday

Maximum temperature yesterday: 93 °F (at 4:15 PM)
Minimum temperature yesterday: 63 °F (at 4:15 AM)
Average temperature yesterday: 80 °F

Past Weeks' High & Low Weather Summary

 TemperatureHumidityPressure
High102 °F (Jun 28, 2:15 PM)82% (Jun 26, 3:55 AM)30.16 "Hg (Jun 26, 3:55 AM)
Low50 °F (Jun 21, 5:55 AM)10% (Jun 24, 12:15 PM)29.81 "Hg (Jun 18, 4:55 PM)
Average73 °F43%29.98 "Hg
* Reported Jun 16 5:35 PM — Jul 1 5:35 PM, Post Falls, Weather by CustomWeather, © 2015

Note: Actual official high and low records may vary slightly from our data, if they occured in-between our weather recording intervals... More about our weather records

Advertising

Post Falls weather history for previous 24 hours

 ConditionsComfort  
Time TempWeatherWind HumidityBarometerVisibility
5:35 PM
Wed, Jul 1
93 °FSunny.6 mph20%29.93 "Hg10 mi
5:15 PM93 °FSunny.6 mph21%29.94 "Hg10 mi
4:55 PM93 °FSunny.7 mph21%29.94 "Hg10 mi
4:35 PM93 °FSunny.8 mph23%29.94 "Hg10 mi
4:15 PM93 °FSunny.7 mph21%29.95 "Hg10 mi
3:55 PM93 °FSunny.14 mph21%29.95 "Hg10 mi
3:35 PM93 °FSunny.3 mph21%29.96 "Hg10 mi
2:55 PM93 °FSunny.3 mph21%29.97 "Hg10 mi
2:15 PM93 °FSunny.13 mph20%29.98 "Hg10 mi
1:55 PM93 °FSunny.14 mph20%29.98 "Hg10 mi
1:35 PM93 °FSunny.14 mph23%29.99 "Hg10 mi
1:15 PM91 °FSunny.12 mph24%29.99 "Hg10 mi
12:55 PM91 °FSunny.8 mph24%30.00 "Hg10 mi
12:35 PM90 °FSunny.9 mph29%30.00 "Hg10 mi
12:15 PM88 °FSunny.9 mph31%30.01 "Hg10 mi
11:55 AM88 °FSunny.3 mph33%30.01 "Hg10 mi
11:35 AM88 °FSunny.6 mph33%30.01 "Hg10 mi
11:15 AM84 °FSunny.9 mph37%30.01 "Hg10 mi
10:55 AM84 °FSunny.5 mph37%30.01 "Hg10 mi
10:35 AM82 °FSunny.5 mph40%30.01 "Hg10 mi
10:15 AM81 °FSunny.No wind39%30.01 "Hg10 mi
9:55 AM81 °FSunny.3 mph42%30.01 "Hg10 mi
9:35 AM79 °FSunny.3 mph45%30.01 "Hg10 mi
9:15 AM79 °FSunny.3 mph45%30.01 "Hg10 mi
8:55 AM75 °FSunny.No wind50%30.01 "Hg10 mi
8:35 AM75 °FSunny.No wind50%30.01 "Hg10 mi
8:15 AM73 °FSunny.No wind53%30.01 "Hg10 mi
7:55 AM73 °FSunny.3 mph53%30.02 "Hg10 mi
7:35 AM72 °FSunny.5 mph57%30.02 "Hg10 mi
7:15 AM70 °FSunny.6 mph57%30.01 "Hg10 mi
6:55 AM68 °FSunny.7 mph60%30.01 "Hg10 mi
6:35 AM66 °FSunny.6 mph64%30.01 "Hg10 mi
6:15 AM64 °FSunny.6 mph68%30.00 "Hg10 mi
5:55 AM63 °FSunny.6 mph68%29.99 "Hg10 mi
5:35 AM63 °FClear.5 mph73%29.99 "Hg10 mi
5:15 AM61 °FClear.6 mph72%29.99 "Hg10 mi
4:55 AM61 °FClear.8 mph72%29.98 "Hg10 mi
4:35 AM61 °FClear.5 mph72%29.98 "Hg10 mi
4:15 AM61 °FClear.3 mph72%29.98 "Hg10 mi
3:55 AM63 °FClear.No wind68%29.97 "Hg10 mi
3:35 AM64 °FClear.No wind64%29.97 "Hg10 mi
3:15 AM66 °FClear.7 mph64%29.97 "Hg10 mi
2:55 AM70 °FClear.6 mph64%29.97 "Hg10 mi
2:35 AM63 °FClear.5 mph73%29.97 "Hg10 mi
2:15 AM66 °FClear.3 mph68%29.97 "Hg10 mi
1:55 AM64 °FClear.7 mph68%29.97 "Hg10 mi
1:35 AM66 °FClear.No wind64%29.97 "Hg10 mi
1:15 AM64 °FClear.No wind68%29.97 "Hg10 mi
12:55 AM66 °FClear.3 mph60%29.97 "Hg10 mi
12:35 AM66 °FClear.6 mph60%29.97 "Hg10 mi
12:15 AM66 °FClear.3 mph60%29.97 "Hg10 mi
11:55 PM
Tue, Jun 30
68 °FClear.5 mph60%29.97 "Hg10 mi
11:35 PM72 °FClear.3 mph57%29.97 "Hg10 mi
11:15 PM72 °FClear.3 mph53%29.97 "Hg10 mi
10:55 PM73 °FClear.5 mph53%29.97 "Hg10 mi
10:35 PM73 °FClear.6 mph53%29.96 "Hg10 mi
10:15 PM73 °FClear.6 mph53%29.96 "Hg10 mi
9:15 PM75 °FSunny.No wind47%29.94 "Hg10 mi
8:55 PM79 °FSunny.No wind42%29.93 "Hg10 mi
8:35 PM86 °FSunny.No wind27%29.93 "Hg10 mi
8:15 PM86 °FSunny.5 mph27%29.93 "Hg10 mi
7:55 PM88 °FSunny.3 mph25%29.93 "Hg10 mi
7:35 PM88 °FSunny.3 mph25%29.93 "Hg10 mi
7:15 PM90 °FSunny.5 mph24%29.93 "Hg10 mi
6:55 PM90 °FSunny.7 mph24%29.93 "Hg10 mi
6:35 PM90 °FSunny.8 mph27%29.93 "Hg10 mi
6:15 PM91 °FSunny.No wind23%29.94 "Hg10 mi
Weather by CustomWeather, © 2015

See weather overviewHow to use our weather pages